Regional Weather Roundup
Issued by NWS Charleston, WV

Home | Current Version | Previous Version | Graphics & Text | Print | Product List | Glossary On
Versions: 1 2 3 4 5 6 7 8 9 10 11 12 13 14 15 16 17 18 19 20 21 22 23 24 25 26 27 28 29 30 31 32 33 34 35 36 37 38 39 40 41 42 43 44 45 46 47 48 49 50
000
ASUS41 KRLX 041410
RWRRLX
West Virginia Regional Weather Roundup
National Weather Service Charleston WV
1000 AM EDT MON MAY 04 2015

Note: "fair" indicates few or no clouds below 12,000 feet with no
significant weather and/or obstructions to visibility.

WVZ003-041500-
Northern Panhandle of West Virginia

CITY           SKY/WX    TMP DP  RH WIND       PRES   REMARKS
WHEELING       SUNNY     68  42  38 SW9       30.19S
$$

WVZ009-041500-
Northwest West Virginia

CITY           SKY/WX    TMP DP  RH WIND       PRES   REMARKS
PARKERSBURG    SUNNY     70  44  39 S9        30.23S
$$

WVZ006-041500-
Western West Virginia

CITY           SKY/WX    TMP DP  RH WIND       PRES   REMARKS
HUNTINGTON     SUNNY     66  50  56 S7        30.23R
$$

WVZ015-041500-
West Central West Virginia

CITY           SKY/WX    TMP DP  RH WIND       PRES   REMARKS
CHARLESTON     MOSUNNY   69  49  48 CALM      30.24R
$$

WVZ022-031-041500-
North Central West Virginia

CITY           SKY/WX    TMP DP  RH WIND       PRES   REMARKS
CLARKSBURG     MOSUNNY   68  50  52 VRB3      30.23S
MORGANTOWN     SUNNY     71  44  37 VRB7      30.23S
$$

WVZ025-035-042-045-041500-
Southern West Virginia

CITY           SKY/WX    TMP DP  RH WIND       PRES   REMARKS
BECKLEY        SUNNY     68  44  42 SW8       30.31R
LOGAN            N/A     68  46  45 VRB3      30.25R
BLUEFIELD      SUNNY     69  45  41 W10       30.33R
LEWISBURG      SUNNY     64  48  55 CALM      30.31S
$$

WVZ047-041500-
Northern Mountains of West Virginia

CITY           SKY/WX    TMP DP  RH WIND       PRES   REMARKS
ELKINS         SUNNY     62  46  55 CALM      30.27F
$$

WVZ052-041500-
Eastern Panhandle of West Virginia

CITY           SKY/WX    TMP DP  RH WIND       PRES   REMARKS
MARTINSBURG    SUNNY     69  51  52 CALM      30.23F
PETERSBURG     SUNNY     63  47  54 CALM      30.24F
$$


USA.gov is the U.S. government's official web portal to all federal, state and local government web resources and services.